Regional Weather Roundup
Issued by NWS

Home | Current Version | Previous Version | Text Only | Print | Product List | Glossary Off
Versions: 1 2 3 4 5 6 7 8 9 10 11 12 13 14 15 16 17 18 19 20 21 22 23 24 25 26 27 28 29 30 31 32 33 34 35 36 37 38 39 40 41 42 43 44 45 46 47 48 49 50

000
ASUS43 KDMX 202107
RWRIA

WEATHER ROUNDUP FOR IOWA
NATIONAL WEATHER SERVICE DES MOINES IA
300 PM CST THU NOV 20 2014

NOTE: "FAIR" INDICATES FEW OR NO CLOUDS BELOW 12,000 FEET WITH NO
SIGNIFICANT WEATHER AND/OR OBSTRUCTIONS TO VISIBILITY.

* - THESE STATIONS ARE NOT NWS STATIONS...THUS NOT UNDER NWS
QUALITY CONTROL.  THEY ALSO DO NOT REPORT WEATHER SUCH
AS PRECIPITATION OR FOG.

IAZ001>003-012>014-020>022-031>034-043>046-202200-
   NORTHWEST IOWA

CITY           SKY/WX    TMP DP  RH WIND       PRES   REMARKS
CARROLL *      SUNNY     25  14  63 NW10      30.20R WCI  15
CHEROKEE *     SUNNY     23  14  68 NW7       30.19S WCI  15
DENISON *      SUNNY     25  12  58 N8        30.18S WCI  16
LE MARS *      SUNNY     25  14  63 NW6       30.20S WCI  18
ORANGE CITY *  SUNNY     23  12  63 NW9       30.17S WCI  13
SHELDON *      SUNNY     19  10  68 NW12      30.16S WCI   7
SIOUX CITY     SUNNY     27  14  58 NW8       30.20S WCI  19
SPENCER        SUNNY     20  10  65 NW12      30.18S WCI   8
STORM LAKE *   SUNNY     21  12  68 NW9       30.18S WCI  11
$$

IAZ055>058-069>071-079>083-090>094-202200-
   SOUTHWEST IOWA

CITY           SKY/WX    TMP DP  RH WIND       PRES   REMARKS
ATLANTIC *     PTSUNNY   28  18  64 NW10      30.20S WCI  19
AUDUBON *      SUNNY     27  10  50 NW6       30.19S WCI  20
CLARINDA *     CLOUDY    30  19  64 N9        30.23R WCI  22
COUNCIL BLFS * CLOUDY    28  19  69 NE7       30.18S WCI  21
CRESTON *      MOSUNNY   27  16  63 NW9       30.19S WCI  17
HARLAN  *      SUNNY     27  16  63 N9        30.23S WCI  17
LAMONI         SUNNY     29  17  61 NW12      30.19F WCI  19
RED OAK *      CLOUDY    28  19  69 N7        30.21S WCI  21
SHENANDOAH *   SUNNY     32  19  59 N7        30.21S WCI  26
$$

IAZ047>049-059>061-072>074-084-202200-
   CENTRAL IOWA

CITY           SKY/WX    TMP DP  RH WIND       PRES   REMARKS
AMES           SUNNY     25  12  58 NW13      30.20S WCI  14
ANKENY *       SUNNY     27  14  59 NW10      30.21S WCI  17
CHARITON *     SUNNY     30  14  51 NW8G18    30.19S WCI  23
DES MOINES     MOSUNNY   29  13  51 NW12      30.21R WCI  19
GRINNELL*      SUNNY     27  12  54 NW13      30.19S WCI  16
KNOXVILLE *    SUNNY     28   9  43 NW10      30.19R WCI  19
MARSHALLTOWN   SUNNY     23  12  62 NW13      30.19R WCI  11
PELLA *        SUNNY     30  14  51 NW12      30.21S WCI  21
PERRY *          N/A     27  18  69 NW8       30.21R WCI  18
$$

IAZ004>006-015-016-023>025-035-036-202200-
   NORTH CENTRAL IOWA

CITY           SKY/WX    TMP DP  RH WIND       PRES   REMARKS
ALGONA *       SUNNY     19  10  68 NW12      30.18S WCI   7
CLARION *      SUNNY     19  10  68 NW12      30.19R WCI   7
ESTHERVILLE    SUNNY     18   9  68 NW12      30.17S WCI   5
FORT DODGE *   SUNNY     23  10  58 NW9       30.20S WCI  13
MASON CITY     SUNNY     19   9  65 NW16      30.18R WCI   4
FOREST CITY *  SUNNY     21  12  68 NW12G18   30.17S WCI   9
IOWA FALLS *     N/A     21  12  68 NW12      30.20R WCI   9
$$

IAZ007>011-017>019-026>030-037>042-050>054-066-202200-
   NORTHEAST IOWA

CITY           SKY/WX    TMP DP  RH WIND       PRES   REMARKS
CEDAR RAPIDS   SUNNY     24  12  60 W18G24    30.18R WCI  10
CHARLES CITY * MOSUNNY   19   7  58 NW16      30.17R WCI   5
CLINTON *      SUNNY     27   7  43 W16G23    30.19R WCI  14
DECORAH *      SUNNY     18   5  57 NW14G20   30.13S WCI   4
DUBUQUE        SUNNY     20   7  57 W16       30.14R WCI   6
MONTICELLO *   SUNNY     23   9  54 W16G24    30.16S WCI  10
OELWEIN *      SUNNY     19   7  58 NW18      30.16S WCI   4
WATERLOO       SUNNY     22   9  57 NW12      30.19R WCI  10
$$

IAZ064-065-067-068-078-202200-
   EAST CENTRAL IOWA

CITY           SKY/WX    TMP DP  RH WIND       PRES   REMARKS
DAVENPORT      SUNNY     26   6  42 NW18      30.17R WCI  13
IOWA CITY      SUNNY     27  10  49 NW14      30.21R WCI  16
MT. PLEASANT * SUNNY     30  10  43 W13       30.20R WCI  20
MUSCATINE *    SUNNY     28   9  43 NW15G21   30.21R WCI  17
QUAD CITIES    SUNNY     28   8  43 NW16G25   30.17R WCI  16
$$

IAZ062-063-075>077-085>089-095>099-202200-
   SOUTHEAST IOWA

CITY           SKY/WX    TMP DP  RH WIND       PRES   REMARKS
BURLINGTON     SUNNY     31  12  45 NW12G20   30.18S WCI  22
FAIRFIELD *    SUNNY     28  12  50 NW12      30.19S WCI  18
FORT MADISON * SUNNY     32  16  51 NW12G17   30.20S WCI  23
KEOKUK *       SUNNY     32  12  43 W10G17    30.19S WCI  24
OSKALOOSA *      N/A     28  14  54 NW12G17   30.20S WCI  18
CENTERVILLE *  SUNNY     32  14  47 W7        30.20S WCI  26
OTTUMWA        SUNNY     30  12  47 NW9       30.19S WCI  22
WASHINGTON *   SUNNY     28  10  47 W16       30.20R WCI  17
$$

ABBREVIATIONS USED IN REMARKS
   TC - TEMPERATURES IN CELSIUS
  WCI - WIND CHILL INDEX
   HX - HEAT INDEX
  VSB - VISIBILITY
$$



USA.gov is the U.S. government's official web portal to all federal, state and local government web resources and services.